Location: Tel Aviv
(32.0670°N, 34.7670°E)
Time: 11:42:57
(UTC+03:00)

Transit 2A - Pass Details

Date: 24 January 2022
Orbit: 598 x 960 km, 66.7° (Epoch: 20 May)

Event Time Altitude Azimuth Distance (km) Brightness Sun altitude
Rises 19:10:37 0° 350° (N) 3,564 9.5 -26.1°
Enters shadow 19:13:29 - 4° (N) 2,732 8.7 -26.7°
Reaches altitude 10° 19:14:09 10° 9° (N) 2,564 - -26.8°
Maximum altitude 19:18:01 18° 50° (NE) 2,003 - -27.6°
Drops below altitude 10° 19:21:39 10° 91° (E) 2,405 - -28.4°
Sets 19:24:48 0° 111° (ESE) 3,256 - -29.1°
